When you browse on this site, cookies collect data to enhance your experience and personalize the content and advertising you see.
Visit our Privacy Policy to learn more. By continuing to use the site, you agree to this use of cookies and data.
  • In Hungary
  • List of Countries
  • For 7 days
  • Water Temperature
  • Weather Map
  • News
  • Weather Widgets
  • user-avatar
    Login

    Hourly Weather Wetaskiwin

    Today, 29 March, Sunday

    Time Temperature Precipitation Wind Pressure Humidity
    00:00 -10°C° 0 mm 5 mps 686 mmHg 95%
    01:00 -10°C° 0 mm 5 mps 686 mmHg 95%
    02:00 -8°C° 0 mm 5 mps 686 mmHg 96%
    03:00 -7°C° 0 mm 4 mps 685 mmHg 96%
    04:00 -7°C° 0 mm 4 mps 685 mmHg 96%
    05:00 -5°C° 0 mm 3 mps 685 mmHg 96%
    06:00 -5°C° 0 mm 3 mps 685 mmHg 95%
    07:00 -5°C° 0 mm 3 mps 684 mmHg 95%
    08:00 -3°C° 0 mm 2 mps 684 mmHg 96%
    09:00 -2°C° 0 mm 2 mps 684 mmHg 98%
    10:00 +1°C° 0 mm 1 mps 684 mmHg 99%
    11:00 -1°C° 0 mm 2 mps 684 mmHg 99%
    12:00 -1°C° 0 mm 2 mps 684 mmHg 99%
    13:00 -1°C° 0 mm 3 mps 684 mmHg 99%
    14:00 -1°C° 0 mm 3 mps 684 mmHg 99%
    15:00 -1°C° 0 mm 3 mps 685 mmHg 99%
    16:00 -1°C° 0 mm 3 mps 685 mmHg 98%
    17:00 -1°C° 0 mm 3 mps 685 mmHg 98%
    18:00 -2°C° 0 mm 3 mps 686 mmHg 97%
    19:00 -2°C° 0 mm 3 mps 686 mmHg 97%
    20:00 -4°C° 0 mm 4 mps 687 mmHg 96%
    21:00 -5°C° 0 mm 4 mps 687 mmHg 96%
    22:00 -8°C° 0 mm 4 mps 688 mmHg 95%
    23:00 -8°C° 0.1 mm 5 mps 688 mmHg 95%

    Tomorrow, 30 March, Monday

    Time Temperature Precipitation Wind Pressure Humidity
    00:00 -10°C° 0.1 mm 5 mps 689 mmHg 95%
    01:00 -10°C° 0.1 mm 5 mps 690 mmHg 94%
    02:00 -12°C° 0.1 mm 5 mps 690 mmHg 94%
    03:00 -13°C° 0.1 mm 5 mps 691 mmHg 94%
    04:00 -15°C° 0.1 mm 5 mps 691 mmHg 94%
    05:00 -15°C° 0.1 mm 4 mps 691 mmHg 94%
    06:00 -16°C° 0.1 mm 4 mps 692 mmHg 94%
    07:00 -17°C° 0.1 mm 4 mps 692 mmHg 94%
    08:00 -15°C° 0 mm 3 mps 692 mmHg 93%
    09:00 -15°C° 0 mm 3 mps 692 mmHg 93%
    10:00 -14°C° 0 mm 3 mps 692 mmHg 92%
    11:00 -13°C° 0 mm 3 mps 692 mmHg 92%
    12:00 -12°C° 0 mm 3 mps 691 mmHg 91%
    13:00 -12°C° 0 mm 3 mps 691 mmHg 91%
    14:00 -10°C° 0.1 mm 3 mps 691 mmHg 92%
    15:00 -11°C° 0.1 mm 4 mps 690 mmHg 92%
    16:00 -11°C° 0.1 mm 4 mps 690 mmHg 93%
    17:00 -11°C° 0.9 mm 4 mps 690 mmHg 94%
    18:00 -10°C° 0.9 mm 3 mps 689 mmHg 95%
    19:00 -10°C° 0.9 mm 3 mps 689 mmHg 95%
    20:00 -9°C° 1.3 mm 3 mps 689 mmHg 95%
    21:00 -10°C° 1.3 mm 4 mps 689 mmHg 95%
    22:00 -10°C° 1.3 mm 4 mps 690 mmHg 95%
    23:00 -12°C° 1 mm 5 mps 690 mmHg 95%

    Day after tomorrow, 31 March, Tuesday

    Time Temperature Precipitation Wind Pressure Humidity
    00:00 -12°C° 1 mm 5 mps 690 mmHg 95%
    01:00 -13°C° 1 mm 5 mps 690 mmHg 94%
    02:00 -14°C° 0.7 mm 6 mps 690 mmHg 94%
    03:00 -15°C° 0.7 mm 6 mps 691 mmHg 94%
    04:00 -17°C° 0.7 mm 7 mps 691 mmHg 94%
    05:00 -18°C° 0.3 mm 7 mps 692 mmHg 93%
    06:00 -18°C° 0.3 mm 8 mps 692 mmHg 93%
    07:00 -19°C° 0.3 mm 8 mps 693 mmHg 93%
    08:00 -19°C° 0.1 mm 8 mps 693 mmHg 91%
    09:00 -19°C° 0.1 mm 8 mps 694 mmHg 90%
    10:00 -19°C° 0.1 mm 8 mps 694 mmHg 88%
    11:00 -18°C° 0.1 mm 8 mps 695 mmHg 88%
    12:00 -18°C° 0.1 mm 8 mps 695 mmHg 87%
    13:00 -17°C° 0.1 mm 8 mps 695 mmHg 86%
    14:00 -17°C° 0 mm 8 mps 695 mmHg 86%
    15:00 -18°C° 0 mm 7 mps 696 mmHg 87%
    16:00 -18°C° 0 mm 7 mps 696 mmHg 87%
    17:00 -18°C° 0 mm 6 mps 696 mmHg 89%
    18:00 -19°C° 0 mm 5 mps 697 mmHg 91%
    19:00 -19°C° 0 mm 4 mps 697 mmHg 93%
    20:00 -20°C° 0 mm 4 mps 697 mmHg 94%
    21:00 -20°C° 0 mm 4 mps 698 mmHg 94%
    22:00 -22°C° 0 mm 5 mps 698 mmHg 94%
    23:00 -22°C° 0 mm 5 mps 698 mmHg 94%

    1 April, Wednesday

    Time Temperature Precipitation Wind Pressure Humidity
    00:00 -24°C° 0 mm 5 mps 697 mmHg 94%
    01:00 -24°C° 0 mm 6 mps 697 mmHg 94%
    02:00 -24°C° 0 mm 5 mps 697 mmHg 93%
    03:00 -25°C° 0 mm 5 mps 697 mmHg 93%
    04:00 -25°C° 0 mm 5 mps 697 mmHg 93%
    05:00 -24°C° 0 mm 6 mps 697 mmHg 92%
    06:00 -24°C° 0 mm 6 mps 697 mmHg 91%
    07:00 -24°C° 0 mm 7 mps 697 mmHg 90%
    08:00 -23°C° 0.1 mm 7 mps 697 mmHg 90%
    09:00 -23°C° 0.1 mm 7 mps 697 mmHg 90%
    10:00 -21°C° 0.1 mm 7 mps 697 mmHg 90%
    11:00 -20°C° 0.1 mm 6 mps 697 mmHg 89%
    12:00 -20°C° 0.1 mm 6 mps 697 mmHg 88%
    13:00 -18°C° 0.1 mm 6 mps 698 mmHg 87%
    14:00 -18°C° 0.1 mm 6 mps 698 mmHg 86%
    15:00 -18°C° 0.1 mm 5 mps 698 mmHg 86%
    16:00 -18°C° 0.1 mm 5 mps 699 mmHg 85%
    17:00 -18°C° 0 mm 4 mps 699 mmHg 88%
    18:00 -19°C° 0 mm 3 mps 699 mmHg 90%
    19:00 -19°C° 0 mm 2 mps 700 mmHg 92%
    20:00 -20°C° 0 mm 2 mps 700 mmHg 93%
    21:00 -21°C° 0 mm 2 mps 700 mmHg 94%
    22:00 -24°C° 0 mm 3 mps 701 mmHg 95%
    23:00 -24°C° 0 mm 3 mps 701 mmHg 96%

    2 April, Thursday

    Time Temperature Precipitation Wind Pressure Humidity
    00:00 -25°C° 0 mm 3 mps 701 mmHg 96%
    01:00 -26°C° 0 mm 3 mps 701 mmHg 96%
    02:00 -26°C° 0 mm 3 mps 701 mmHg 95%
    03:00 -27°C° 0 mm 3 mps 701 mmHg 94%
    04:00 -27°C° 0 mm 3 mps 701 mmHg 94%
    05:00 -26°C° 0 mm 3 mps 702 mmHg 93%
    06:00 -27°C° 0 mm 4 mps 702 mmHg 93%
    07:00 -26°C° 0 mm 4 mps 703 mmHg 92%
    08:00 -24°C° 0 mm 4 mps 703 mmHg 92%
    09:00 -22°C° 0 mm 3 mps 703 mmHg 91%
    10:00 -19°C° 0 mm 3 mps 703 mmHg 90%
    11:00 -18°C° 0 mm 3 mps 703 mmHg 87%
    12:00 -17°C° 0 mm 3 mps 703 mmHg 85%
    13:00 -15°C° 0 mm 2 mps 703 mmHg 83%
    14:00 -15°C° 0 mm 2 mps 703 mmHg 84%
    15:00 -13°C° 0 mm 1 mps 703 mmHg 85%
    16:00 -13°C° 0 mm 1 mps 703 mmHg 86%
    17:00 -15°C° 0 mm 1 mps 703 mmHg 89%
    18:00 -17°C° 0 mm 1 mps 703 mmHg 92%
    19:00 -19°C° 0 mm 0 mps 702 mmHg 95%
    20:00 -19°C° 0 mm 1 mps 702 mmHg 95%
    21:00 -20°C° 0 mm 1 mps 703 mmHg 94%
    22:00 -20°C° 0 mm 1 mps 703 mmHg 94%
    23:00 -20°C° 0 mm 1 mps 702 mmHg 94%

    3 April, Friday

    Time Temperature Precipitation Wind Pressure Humidity
    00:00 -21°C° 0 mm 1 mps 702 mmHg 94%
    01:00 -21°C° 0 mm 1 mps 702 mmHg 94%
    02:00 -21°C° 0 mm 1 mps 702 mmHg 94%
    03:00 -22°C° 0 mm 1 mps 701 mmHg 95%
    04:00 -22°C° 0 mm 1 mps 701 mmHg 95%
    05:00 -21°C° 0 mm 1 mps 701 mmHg 95%
    06:00 -20°C° 0 mm 1 mps 702 mmHg 94%
    07:00 -19°C° 0 mm 1 mps 702 mmHg 94%
    08:00 -17°C° 0 mm 1 mps 702 mmHg 92%
    09:00 -15°C° 0 mm 1 mps 702 mmHg 90%
    10:00 -14°C° 0 mm 0 mps 702 mmHg 87%
    11:00 -13°C° 0 mm 1 mps 701 mmHg 86%
    12:00 -12°C° 0 mm 1 mps 701 mmHg 85%
    13:00 -11°C° 0 mm 1 mps 701 mmHg 83%
    14:00 -11°C° 0 mm 1 mps 701 mmHg 84%
    15:00 -11°C° 0 mm 0 mps 700 mmHg 85%
    16:00 -11°C° 0 mm 0 mps 700 mmHg 85%
    17:00 -12°C° 0 mm 0 mps 700 mmHg 88%
    18:00 -14°C° 0 mm 0 mps 700 mmHg 90%
    19:00 -15°C° 0 mm 1 mps 700 mmHg 93%
    20:00 -16°C° 0 mm 1 mps 700 mmHg 92%
    21:00 -16°C° 0 mm 1 mps 700 mmHg 92%
    22:00 -16°C° 0 mm 1 mps 700 mmHg 91%
    23:00 -17°C° 0 mm 1 mps 700 mmHg 92%
    Show more